Satellite: PHARMSAT
Catalog number: 35002
Epoch time:      10259.53530501
Element set:     361
Inclination:      040.4700 deg
RA of node:       022.7646 deg
Eccentricity:    0.0025314
Arg of perigee:   330.0276 deg
Mean anomaly:     029.9098 deg
Mean motion:   15.43097379 rev/day
Decay rate:      5.003e-05 rev/day^2
Epoch rev:            7476
Checksum:              262

Satellite: HAWKSAT1
Catalog number: 35003
Epoch time:      10259.49521105
Element set:     391
Inclination:      040.4601 deg
RA of node:       014.8147 deg
Eccentricity:    0.0023425
Arg of perigee:   349.0278 deg
Mean anomaly:     011.0031 deg
Mean motion:   15.47113149 rev/day
Decay rate:     1.2271e-04 rev/day^2
Epoch rev:            7485
Checksum:              244

Satellite: CP6
Catalog number: 35004
Epoch time:      10258.72445252
Element set:     386
Inclination:      040.4614 deg
RA of node:       017.7457 deg
Eccentricity:    0.0022518
Arg of perigee:   349.0670 deg
Mean anomaly:     010.9647 deg
Mean motion:   15.48271484 rev/day
Decay rate:     1.3923e-04 rev/day^2
Epoch rev:            7474
Checksum:              297

Satellite: AEROCUB3
Catalog number: 35005
Epoch time:      10259.64397097
Element set:     452
Inclination:      040.4690 deg
RA of node:       003.7597 deg
Eccentricity:    0.0023554
Arg of perigee:   018.7578 deg
Mean anomaly:     341.4152 deg
Mean motion:   15.58272560 rev/day
Decay rate:     6.2138e-04 rev/day^2
Epoch rev:            7498
Checksum:              314

Satellite: CASTOR
Catalog number: 35694
Epoch time:      10230.44082147
Element set:     655
Inclination:      051.5930 deg
RA of node:       222.0149 deg
Eccentricity:    0.0004218
Arg of perigee:   308.0851 deg
Mean anomaly:     053.0105 deg
Mean motion:   16.48877011 rev/day
Decay rate:   7.179566e-02 rev/day^2
Epoch rev:            6110
Checksum:              273

Satellite: METEOR-M
Catalog number: 35865
Epoch time:      10259.61740320
Element set:     662
Inclination:      098.7488 deg
RA of node:       312.7189 deg
Eccentricity:    0.0003224
Arg of perigee:   094.3781 deg
Mean anomaly:     265.7773 deg
Mean motion:   14.21831598 rev/day
Decay rate:       1.76e-06 rev/day^2
Epoch rev:            5171
Checksum:              316

Satellite: RS-38
Catalog number: 35869
Epoch time:      10259.86039289
Element set:     674
Inclination:      098.7477 deg
RA of node:       312.9981 deg
Eccentricity:    0.0005454
Arg of perigee:   096.1064 deg
Mean anomaly:     264.0718 deg
Mean motion:   14.21988616 rev/day
Decay rate:       1.77e-06 rev/day^2
Epoch rev:            5175
Checksum:              357

/EX
_______________________________________________
Via the Keps mailing list courtesy of AMSAT-NA
http://amsat.org/mailman/listinfo/keps

--- ViaMAIL!/WC v1.60d
 * Origin: Chowdanet (401-724-4410) telnet://chowdanet.com  (1:323/120)